Regional Weather Roundup
Issued by NWS Green Bay, WI

Home | Current Version | Previous Version | Graphics & Text | Print | Product List | Glossary Off
Versions: 1 2 3 4 5 6 7 8 9 10 11 12 13 14 15 16 17 18 19 20 21 22 23 24 25 26 27 28 29 30 31 32 33 34 35 36 37 38 39 40 41 42 43 44 45 46 47 48 49 50

000
ASUS43 KGRB 171659
RWRGRB

NORTH-CENTRAL AND NORTHEAST WISCONSIN REGIONAL WEATHER ROUNDUP
NATIONAL WEATHER SERVICE GREEN BAY WI
1100 AM CST WED DEC 17 2014

WIZ005-009-010>012-018-019-171800-
NORTH CENTRAL WISCONSIN

CITY           SKY/WX    TMP DP  RH WIND       PRES   REMARKS
IRONWOOD       CLOUDY    18  16  93 W12       30.16S WCI   5
MANITOWISH WTR NOT AVBL
ARBOR VITAE    NOT AVBL
EAGLE RIVER    NOT AVBL
LAND O LAKES   NOT AVBL
RHINELANDER    CLOUDY    16  10  77 W10G18    30.14F WCI   4
PHILLIPS       NOT AVBL
ANTIGO         NOT AVBL
TOMAHAWK       NOT AVBL
MERRILL        NOT AVBL
$$

WIZ013-073-171800-
NORTHEAST WISCONSIN

CITY           SKY/WX    TMP DP  RH WIND       PRES   REMARKS
IRON MOUNTAIN  LGT SNOW  23  17  78 NW10      30.09S
MARINETTE      CLOUDY    25  16  68 NW12G20   30.12F
$$

WIZ017-030-035>037-045-171800-
CENTRAL WISCONSIN

CITY           SKY/WX    TMP DP  RH WIND       PRES   REMARKS
MEDFORD        NOT AVBL
WAUSAU         CLOUDY    18  10  71 W13       30.18F WCI   5
MOSINEE        NOT AVBL
MARSHFIELD     CLOUDY    20  12  71 N14       30.20S WCI   7
WISC RAPIDS    CLOUDY    21  13  71 NW14      30.23S WCI   8
STEVENS POINT  NOT AVBL
WAUPACA        NOT AVBL
SHAWANO        NOT AVBL
CLINTONVILLE   NOT AVBL
$$

WIZ038-039-048-051-171800-
FOX VALLEY

CITY           SKY/WX    TMP DP  RH WIND       PRES   REMARKS
NWS GREEN BAY  MOSUNNY   25  15  66 W20       30.17F
APPLETON       PTSUNNY   23  12  63 NW16G23   30.19F WCI  10
OSHKOSH        CLOUDY    24  15  68 NW15      30.19F
FOND DU LAC    FLURRIES  25  16  68 NW15      30.19F
$$

WIZ022-050-052-171800-
EAST CENTRAL WISCONSIN

CITY           SKY/WX    TMP DP  RH WIND       PRES   REMARKS
STURGEON BAY   CLOUDY    23  16  74 W16G22    30.14F WCI  10
MANITOWOC      NOT AVBL
SHEBOYGAN      CLOUDY    24  13  62 NW17G25   30.17F
$$

LMZ563-521-522-541>543-171800-
LAKESHORE

STATION/POSITION TIME  TEMP    WIND        PRES    VSBY  WAVE
                       AIR SEA DIR/SP/G                  HT/PER
                 (UTC) (F)     (DEG/KT/KT) (MB)    (MI)  (FT/S)
SHEBOYGAN LKSHOR 1600   25 35  300/ 12/ 16 1023.2R
KEWAUNEE LKSHORE 1600   25     290/ 14/ 19 1020.0R
ALGOMA MARINA    1600          310/ 14/ 22   N/A
TWO RIVERS CG    1600   25                 1021.6      6   0
NORTHPORT PIER   1600   26     290/ 12/ 18 1019.0S
SISTER BAY LKSHO 1600          310/ 21/ 27   N/A
STURGEON BAY CG  1600   24     300/ 13     1019.5      6   1
CHAMBERS ISLAND  1600   25     240/  7/ 16 1020.0S
MENOMINEE LKSHOR 1600   24     260/ 13/ 19 1020.8R
$$


USA.gov is the U.S. government's official web portal to all federal, state and local government web resources and services.